Location: Deurze
(52.9838°N, 6.6090°E)
Time: 18:42:44
(UTC+00:00)

Cosmos 2297 Rocket - Pass Details

Date: 11 March 2026
Orbit: 840 x 841 km, 71.0° (Epoch: 20 April)

Event Time Altitude Azimuth Distance (km) Brightness Sun altitude
Rises 18:14:43 0° 317° (NW) 3,407 6.1 -7.5°
Reaches altitude 10° 18:18:32 10° 343° (NNW) 2,471 4.9 -8.1°
Maximum altitude 18:21:24 14° 14° (NNE) 2,202 4.3 -8.5°
Drops below altitude 10° 18:24:15 10° 44° (NE) 2,468 4.3 -8.9°
Enters shadow 18:26:17 - 60° (ENE) 2,913 4.5 -9.2°
